Location: Julian California
(33.0790°N, 116.6010°W)
Time: 13:26:14
(UTC-07:00)

Daily predictions for brighter satellites

Satellite Brightness Start Highest point End
(mag) Time Altitude Azimuth Time Altitude Azimuth Time Altitude Azimuth
USA 229 DEB 3.8 20:17:53 10° SSW 20:24:47 85° ESE 20:31:47 10° NNE
USA 229 3.8 20:17:59 10° SSW 20:24:53 84° ESE 20:31:53 10° NNE
H-2A R/B 3.6 20:23:20 10° ESE 20:26:47 22° ENE 20:30:15 10° NNE
CZ-2D R/B 3.3 20:24:07 10° SSE 20:27:59 89° E 20:31:51 10° N
ATLAS CENTAUR R/B 1.8 20:23:40 10° NW 20:28:02 63° WSW 20:32:01 10° SSE
Cosmos 1437 Rocket 4.0 20:26:49 10° NNE 20:29:55 23° ENE 20:33:01 10° SE
Cosmos 1328 Rocket 3.9 20:26:59 10° N 20:31:16 46° E 20:35:31 10° SSE
Cosmos 2026 Rocket 4.3 20:25:26 10° SSW 20:31:28 71° W 20:37:38 10° N
Cosmos 968 Rocket 4.2 20:31:56 10° SSW 20:37:01 60° WNW 20:42:11 10° N
Cosmos 2221 4.4 20:38:59 10° NNW 20:42:44 31° W 20:46:30 10° SSW
Cosmos 1743 Rocket 3.8 20:39:38 10° S 20:44:05 76° W 20:48:32 10° N
NOSS 3-1 (A) 4.2 20:40:10 10° SSE 20:44:47 25° ESE 20:49:41 10° NE
Cosmos 1500 Rocket 3.5 20:45:21 10° S 20:49:41 82° E 20:54:06 10° N
Meteor 1-21 Rocket 4.2 20:44:35 10° S 20:50:07 90° ESE 20:55:40 10° N
Cosmos 1437 3.8 20:47:46 11° SSE 20:50:24 27° E 20:53:13 10° NE
Cosmos 2228 Rocket 3.6 20:51:31 10° NNW 20:55:57 64° W 21:00:25 10° S
S3M 4.1 20:57:03 10° N 21:03:09 79° W 21:09:17 10° S
Envisat 3.4 20:59:40 14° SE 21:03:45 47° ENE 21:08:36 10° N
ERS-1 Rocket 2.9 20:59:34 10° SSE 21:04:35 85° ENE 21:09:38 10° NNW
Cosmos 1441 Rocket 4.3 21:01:26 10° SSW 21:05:04 45° W 21:08:41 10° N
Delta 2 Rocket 3.4 21:01:52 10° W 21:05:32 59° N 21:08:54 10° ENE
ATLAS 2AS CENTAUR R/B 4.2 21:05:36 15° ESE 21:07:16 16° ESE 21:11:38 10° ENE
Cosmos 2219 3.2 21:02:20 10° S 21:07:57 60° ESE 21:13:37 10° NNE
deb Chang Zheng 4 3.7 21:06:31 10° N 21:10:51 80° WNW 21:15:10 10° SSW
Cosmos 2151 2.9 21:11:31 10° S 21:15:40 69° E 21:19:50 10° NNE
Cosmos 2112 Rocket 4.4 21:15:53 10° N 21:20:56 46° ENE 21:23:46 24° SE
Cosmos 2322 3.8 21:15:46 10° NNW 21:21:25 64° ENE 21:25:00 23° SE
Cosmos 2322 Rocket 3.4 21:16:35 10° NW 21:21:44 39° WSW 21:26:53 10° S
Cosmos 1515 Rocket 4.3 21:18:11 10° NNW 21:22:29 53° W 21:26:44 10° S
Cosmos 2298 Rocket 4.3 21:20:10 13° S 21:24:44 47° ESE 21:29:49 10° NNE
CZ-4 SHROUD 3.7 21:24:11 35° ESE 21:24:56 43° ENE 21:27:55 10° N
Sich 1 4.0 21:25:43 27° ESE 21:26:50 30° E 21:30:42 10° NNE
Aureole 3 4.4 21:21:33 10° S 21:28:33 79° E 21:34:11 10° N
MetOp-B 4.4 21:26:17 24° SE 21:29:16 51° ENE 21:34:27 10° N
Cosmos 2058 2.9 21:28:15 26° SSE 21:30:23 59° E 21:34:25 10° NNE
Cosmos 1633 Rocket 3.9 21:29:42 28° ESE 21:30:37 31° E 21:34:29 10° NNE
Cosmos 2360 Rocket 2.1 21:25:05 10° NNW 21:30:46 80° ENE 21:34:08 25° SSE
NOSS 3-1 (C) 3.3 21:25:18 10° SSW 21:31:02 86° ESE 21:37:19 10° NNE
Cosmos 1908 3.6 21:27:58 10° NNW 21:31:50 61° W 21:34:30 19° S
SL-16 R/B 3.6 21:28:19 10° NW 21:33:19 33° WSW 21:38:18 10° SSW
Cosmos 883 Rocket 4.4 21:27:38 10° N 21:33:51 89° E 21:38:34 18° S
Cosmos 1674 4.1 21:31:43 10° SSW 21:35:17 38° W 21:38:54 10° N
DELTA 2 R/B (1) 3.7 21:30:04 10° WNW 21:35:36 74° NNE 21:38:52 25° ESE
OAO 2 Rocket 3.3 21:32:27 10° WSW 21:37:45 75° SSE 21:42:20 14° E
Cosmos 405 3.6 21:34:31 10° NNW 21:38:03 53° W 21:39:58 24° SSW
Cosmos 1151 Rocket 3.4 21:34:48 10° NNW 21:39:03 62° W 21:41:55 20° S
OTV 4 2.0 21:39:53 10° SW 21:41:17 24° SW 21:41:17 24° SW
Cosmos 1805 Rocket 3.5 21:43:27 24° S 21:46:05 89° E 21:50:32 10° N
Tiangong 1 2.8 21:43:14 10° W 21:46:06 33° NNW 21:48:56 10° NE
YAOGAN 6 2.6 21:47:15 53° ESE 21:47:46 61° ENE 21:51:20 10° N
H-2A R/B 3.5 21:48:41 21° E 21:49:57 23° ENE 21:54:05 10° NNE
CZ-4 R/B 3.9 21:46:19 10° NNE 21:51:07 55° E 21:52:31 40° SSE
Cosmos 1300 2.7 21:48:47 10° N 21:52:34 60° E 21:52:56 57° ESE
CZ-4B R/B 3.5 21:48:24 10° NNE 21:53:40 86° ESE 21:56:59 23° SSW
Cosmos 2227 Rocket 2.8 21:53:14 34° ESE 21:53:41 35° ESE 21:58:45 10° NE
Meteor 1-11 4.2 21:50:02 20° S 21:54:11 87° E 21:59:57 10° N
Cosmos 1680 Rocket 3.8 21:52:13 10° NNW 21:57:24 63° WSW 21:59:53 30° S
Hubble Space Telescope 3.0 21:55:23 10° SW 21:56:00 13° SW 21:56:00 13° SW
SPOT 1/Viking Rocket 3.4 22:00:27 44° SSE 22:02:05 75° ENE 22:07:14 10° N
H-2A R/B 3.9 21:59:24 13° SSW 22:02:35 28° W 22:06:29 10° NW
Cosmos 2315 Rocket 4.1 21:57:10 10° N 22:03:20 75° W 22:06:49 28° S
PSLV R/B 4.5 22:05:24 33° WSW 22:05:37 33° W 22:08:25 10° NNW
Cosmos 1898 Rocket 3.5 22:02:06 19° SSW 22:05:51 78° WNW 22:11:03 10° NNE
Cosmos 1666 Rocket 3.7 22:07:02 37° SSW 22:08:39 68° W 22:13:04 10° N
Cosmos 220 Rocket 3.9 22:08:18 66° SSE 22:08:45 74° ESE 22:13:09 10° NNE
Cosmos 1707 Rocket 3.5 22:04:55 10° N 22:09:17 81° W 22:10:06 58° S
Cosmos 1241 Rocket 4.4 22:06:43 34° S 22:09:21 60° ESE 22:15:28 10° NE
Cosmos 2333 Rocket 3.3 22:07:07 10° N 22:12:07 30° ENE 22:13:18 27° E
SL-16 R/B 4.5 22:10:48 10° NE 22:12:10 11° NE 22:13:31 10° ENE
Cosmos 2150 Rocket 4.4 22:08:56 15° SSW 22:13:29 65° WNW 22:18:55 10° N
SPOT 5 3.9 22:11:50 25° SSW 22:13:50 38° W 22:18:13 10° NNW
Cosmos 1455 4.1 22:12:03 10° NNE 22:13:51 19° NE 22:13:51 19° NE
Cosmos 2297 Rocket 2.7 22:21:13 40° E 22:21:13 40° E 22:25:56 10° NE
Cosmos 1470 Rocket 3.8 22:22:50 54° ENE 22:22:50 54° ENE 22:26:30 10° NNE
Cosmos 1933 Rocket 3.8 22:23:56 56° ENE 22:23:56 56° ENE 22:27:51 10° NNE
ARGOS 3.1 22:22:33 52° S 22:23:54 81° WSW 22:29:18 10° NNW
COSMOS 2428 2.7 22:18:18 10° NNW 22:23:59 77° WSW 22:25:20 53° S
Nadezhda 1 Rocket 4.1 22:20:06 10° N 22:26:02 53° E 22:26:56 48° ESE
CZ-3A R/B 3.5 22:09:42 10° W 22:27:36 44° SSW 22:28:13 42° S
Cosmos 2219 Rocket 2.3 22:26:13 10° NNW 22:31:44 58° ENE 22:32:19 55° E
Cosmos 1726 3.0 22:29:25 10° NNW 22:32:47 45° W 22:32:47 45° W
Cosmos 1745 Rocket 3.9 22:31:50 46° S 22:33:52 86° W 22:40:05 10° N
CZ-4C R/B 4.2 22:35:43 39° N 22:35:43 39° N 22:38:01 10° N
ERBS 4.4 22:38:38 24° NNE 22:38:38 24° NNE 22:40:14 10° NNE
Cosmos 1709 Rocket 4.3 22:42:19 45° E 22:42:19 45° E 22:47:58 10° NNE
DMSP B5D2-2 3.9 22:37:03 10° NNE 22:42:17 79° ESE 22:42:19 79° ESE
Landsat 7 3.8 22:44:50 79° W 22:44:50 79° W 22:49:29 10° NNW
Cosmos 292 Rocket 3.9 22:43:23 10° NNW 22:47:50 70° WNW 22:47:50 70° WNW
NOSS 0 Rocket 3.8 22:42:33 10° NNW 22:48:42 73° ENE 22:49:19 67° ESE
USA 32 4.4 22:44:23 10° NNW 22:49:31 56° W 22:50:14 51° WSW
Cosmos 1980 3.8 22:45:21 10° NNW 22:50:56 61° ENE 22:51:01 61° ENE
Cosmos 1271 Rocket 4.0 22:47:41 10° NNW 22:50:33 39° WNW 22:50:33 39° WNW
Spot 2 4.4 22:49:34 10° NNE 22:54:11 74° NNE 22:54:11 74° NNE
Meteor 1-4 Rocket 4.4 22:51:45 10° NNW 22:54:14 29° WNW 22:54:14 29° WNW
ATLAS 2AS CENTAUR R/B 2.9 22:52:53 28° SW 22:57:10 82° WNW 23:05:10 10° NNE
Cosmos 1386 Rocket 4.4 22:57:20 62° SW 22:58:17 74° W 23:04:17 10° N
Terra 2.1 23:01:11 66° NW 23:01:11 66° NW 23:05:21 10° NNW
Cosmos 2082 4.2 23:01:36 41° WSW 23:03:16 56° WNW 23:08:54 10° NNE
Cosmos 2237 Rocket 2.2 22:57:49 10° NNW 23:03:21 71° NE 23:03:21 71° NE
CARTOSAT-1 4.4 23:05:23 47° NW 23:05:23 47° NW 23:08:39 10° NNW
Spot 4 4.2 23:05:42 64° N 23:05:42 64° N 23:09:48 10° NNW
Lacrosse 4 Rocket 3.6 23:03:32 10° N 23:06:05 20° NE 23:06:05 20° NE
Cosmos 1862 Rocket 4.5 23:03:45 10° NNW 23:06:52 45° NNW 23:06:52 45° NNW
Cosmos 1626 4.1 23:10:26 28° NW 23:10:26 28° NW 23:12:36 10° N
Cosmos 2181 Rocket 4.2 23:07:49 10° N 23:13:59 58° ENE 23:13:59 58° ENE
ATLAS 3B R/B 3.3 23:11:02 10° NNW 23:17:33 42° NE 23:18:29 40° ENE
OAO 2 Rocket 4.1 23:17:25 10° W 23:21:19 48° WNW 23:21:19 48° WNW
FALCON 9 R/B 3.1 23:08:06 10° W 23:28:16 85° N 23:30:02 55° E
H-2A R/B 3.1 23:29:19 37° W 23:29:19 37° W 23:34:02 10° NNW
COSMOS 2455 3.2 23:31:01 10° NNW 23:36:29 58° NE 23:36:29 58° NE
Cosmos 2227 Rocket 4.0 23:34:58 18° WSW 23:37:43 27° WNW 23:42:26 10° N
SeaSat 1 3.6 23:49:07 39° NNE 23:49:07 39° NNE 23:52:37 10° NNW
